EDT,Max TemperatureF,Mean TemperatureF,Min TemperatureF,Max Dew PointF,MeanDew PointF,Min DewpointF,Max Humidity, Mean Humidity, Min Humidity, Max Sea Level PressureIn, Mean Sea Level PressureIn, Min Sea Level PressureIn, Max VisibilityMiles, Mean VisibilityMiles, Min VisibilityMiles, Max Wind SpeedMPH, Mean Wind SpeedMPH, Max Gust SpeedMPH,PrecipitationIn, CloudCover, Events, WindDirDegrees
2014-4-1,66,52,37,56,45,37,100,72,43,30.17,30.11,30.06,10,10,10,13,6,17,0.00,0,,230
2014-4-2,67,62,57,57,56,54,93,81,68,30.11,30.07,30.04,10,10,9,15,11,20,0.00,0,,237
2014-4-3,68,63,58,59,56,51,97,82,67,30.06,30.02,29.96,10,9,7,16,10,25,0.00,0,,245
2014-4-4,68,64,60,62,60,58,100,89,78,29.96,29.90,29.82,9,6,2,24,16,35,0.00,2,,236
2014-4-5,70,62,54,62,56,40,100,78,55,30.07,29.93,29.84,10,8,4,22,13,31,0.00,2,,279
2014-4-6,55,52,48,49,42,34,89,72,54,30.20,30.14,30.07,10,10,10,18,13,32,T,4,,43
2014-4-7,66,60,53,65,62,50,100,95,89,30.13,29.95,29.83,10,3,0,25,12,31,0.67,6,Fog-Rain,163
2014-4-8,65,61,57,65,63,55,100,97,93,29.79,29.66,29.59,10,5,1,26,13,37,0.34,7,Rain,219
2014-4-9,59,52,45,53,44,40,86,70,53,30.08,29.80,29.60,10,10,10,18,10,31,0.00,1,,35
2014-4-10,68,61,54,55,50,46,86,69,52,30.28,30.21,30.09,10,10,9,14,8,20,0.00,0,,245
2014-4-11,72,67,62,60,56,51,87,68,49,30.27,30.21,30.14,10,10,10,22,14,31,0.00,0,,235
2014-4-12,72,65,58,62,60,57,100,83,66,30.26,30.22,30.18,10,10,9,14,7,20,0.00,1,,233
2014-4-13,77,69,60,64,62,57,100,82,64,30.28,30.23,30.19,10,10,8,16,7,21,0.00,3,,172
2014-4-14,74,70,65,66,63,57,93,80,66,30.18,30.06,29.97,10,8,2,21,12,28,0.09,5,Rain,194
2014-4-15,70,60,50,67,65,49,100,92,84,29.95,29.81,29.68,8,4,1,25,17,40,1.14,7,Rain,193
2014-4-16,50,47,43,50,37,31,93,76,58,30.42,30.23,29.81,10,9,1,25,16,47,0.03,6,Rain,22
2014-4-17,55,51,46,48,45,39,93,80,66,30.48,30.43,30.39,10,10,9,21,15,34,0.00,6,,28
2014-4-18,54,51,47,51,48,45,100,89,77,30.41,30.31,30.22,10,8,4,20,13,31,0.08,8,Rain,28
2014-4-19,55,52,49,54,52,49,100,97,93,30.22,30.12,30.05,10,5,2,21,13,34,1.20,8,Rain,38
2014-4-20,57,53,49,57,53,49,100,100,100,30.10,30.06,30.04,6,4,1,22,15,40,0.76,8,Rain,37
2014-4-21,55,52,49,52,50,49,100,93,86,30.03,29.99,29.92,10,6,1,21,12,34,0.02,6,Rain,19
2014-4-22,65,54,42,52,47,43,100,100,100,29.91,29.81,29.67,10,6,0,17,8,25,0.00,2,Fog,251
2014-4-23,64,55,45,43,40,37,76,59,42,29.96,29.77,29.63,10,10,2,16,8,27,T,1,Rain,20
2014-4-24,61,54,46,45,39,35,82,61,40,30.14,30.06,29.98,10,10,10,16,7,25,0.00,0,,76
2014-4-25,74,61,48,64,55,42,87,65,42,30.06,29.91,29.75,10,8,4,28,11,42,0.09,3,Rain,164
2014-4-26,71,66,61,61,52,39,87,62,37,29.99,29.91,29.75,10,10,10,16,10,28,0.00,0,,268
2014-4-27,68,62,55,56,49,43,78,60,42,30.07,30.01,29.92,10,10,10,16,9,23,0.00,0,,37
2014-4-28,73,65,57,65,57,46,84,76,67,30.06,30.01,29.94,10,9,5,15,9,20,0.01,6,Rain,122
2014-4-29,77,71,64,67,64,61,93,84,74,30.13,30.02,29.92,10,7,1,22,10,27,1.30,7,Rain,114
2014-4-30,78,74,69,67,66,65,90,80,69,30.15,30.09,29.98,8,6,2,24,16,29,0.07,5,Rain,169